User: anonymous   Login
Location: Caribou
(46.8667°N, 68.0167°W)
Time: 12:24:33
(UTC-05:00)
Language:

SL-08 RB Rocket - Orbit

View from above orbital plane
View from above orbital plane
View from above satellite
View from above satellite

Ground track
Ground track

The orbit data is extracted from the following two-line orbital elements,

1 26387U 00033D   15058.23386007  .00000721  00000-0  13445-3 0  9990
2 26387 098.0749 127.8402 0027884 124.7375 272.1700 14.67730573784491
Epoch (UTC): 27 February 2015 05:36:45
Eccentricity: 0.0027884
inclination: 98.0749°
perigee height: 648 km
apogee height: 688 km
right ascension of ascending node: 127.8402°
argument of perigee: 124.7375°
revolutions per day: 14.67730573
mean anomaly at epoch: 272.1700°
orbit number at epoch: 78449

The dashed part of the orbit path shows where the satellite is in the earth's shadow,  

DLR